Change the Weather History Date:

Thursday, November 17, 2011

  Actual Average (KGON) Record (KGON)
Temperature  
Mean Temperature 46 °F -  
Max Temperature 55 °F 51 °F 65 °F (1981)
Min Temperature 37 °F 32 °F 16 °F (1967)
Degree Days  
Heating Degree Days 19    
Moisture  
Dew Point 38 °F    
Average Humidity 79    
Maximum Humidity 93    
Minimum Humidity 50    
Precipitation  
Precipitation 0.17 in - - ()
Sea Level Pressure  
Sea Level Pressure 29.80 in    
Wind  
Wind Speed 7 mph (NNW)    
Max Wind Speed 15 mph    
Max Gust Speed 26 mph    
Visibility 9 miles    
Events Rain    
Averages and records for this station are not official NWS values.
T = Trace of Precipitation, MM = Missing Value Source: NWS Daily Summary

Daily Weather History Graph

Daily Weather History Graph

Search for Another Location

Airport or City:

Trip Planner

Search our weather history database for the weather conditions in past years. The results will help you decide how hot, cold, wet, or windy it might be!

Date:

Astronomy

Nov. 17, 2011 Rise Set
Actual Time 6:37 AM EST 4:26 PM EST
Civil Twilight 6:07 AM EST 4:56 PM EST
Nautical Twilight 5:34 AM EST 5:29 PM EST
Astronomical Twilight 5:01 AM EST 6:02 PM EST
Moon 10:44 PM EST (11/17) 11:43 AM EST (11/17)
Length of Visible Light 10h 48m
Length of Day
9h 48m
Waning Gibbous, 60% of the Moon is Illuminated
Nov 17
Waning Gibbous
Nov 18
Last Quarter
Nov 25
New
Dec 2
First Quarter
Dec 10
Full

Hourly Weather History & Observations

Time (EST) Temp. Windchill Dew Point Humidity Pressure Visibility Wind Dir Wind Speed Gust Speed Precip Events Conditions
12:53 AM 55.0 °F - 53.1 °F 93% 29.73 in 10.0 mi Calm Calm - 0.00 in Rain Light Rain
1:53 AM 55.0 °F - 52.0 °F 89% 29.72 in 10.0 mi North 6.9 mph - 0.00 in Rain Light Rain
2:53 AM 54.0 °F - 51.1 °F 90% 29.73 in 10.0 mi NNW 5.8 mph - 0.00 in   Overcast
3:53 AM 53.1 °F - 50.0 °F 89% 29.75 in 10.0 mi NW 4.6 mph - 0.00 in Rain Light Rain
4:53 AM 52.0 °F - 48.0 °F 86% 29.75 in 10.0 mi NW 5.8 mph - 0.00 in   Overcast
5:53 AM 51.1 °F - 44.1 °F 77% 29.77 in 10.0 mi NNW 13.8 mph 20.7 mph N/A   Overcast
6:53 AM 50.0 °F - 43.0 °F 77% 29.79 in 10.0 mi NNW 9.2 mph - N/A   Overcast
7:53 AM 48.9 °F - 41.0 °F 74% 29.80 in 10.0 mi NW 8.1 mph 16.1 mph N/A   Overcast
8:53 AM 48.9 °F - 39.0 °F 69% 29.80 in 10.0 mi NNW 9.2 mph - N/A   Overcast
10:53 AM 48.0 °F - 33.1 °F 56% 29.81 in 10.0 mi NNW 12.7 mph 19.6 mph N/A   Overcast
12:53 PM 46.9 °F - 28.9 °F 50% 29.76 in 10.0 mi North 10.4 mph 20.7 mph N/A   Overcast
1:53 PM 46.0 °F 39.6 °F 28.9 °F 51% 29.74 in 10.0 mi NNW 15.0 mph 20.7 mph 0.00 in Rain Light Rain
2:53 PM 43.0 °F 36.4 °F 32.0 °F 65% 29.78 in 10.0 mi NNW 12.7 mph 20.7 mph 0.00 in Rain Light Rain
3:15 PM 39.2 °F 31.6 °F 33.8 °F 81% 29.78 in 5.0 mi NNW 12.7 mph 26.5 mph 0.02 in Rain Rain
3:34 PM 37.4 °F 30.8 °F 35.6 °F 93% 29.78 in 4.0 mi North 9.2 mph - 0.06 in Rain Rain
3:42 PM 37.4 °F 30.8 °F 35.6 °F 93% 29.79 in 5.0 mi NNW 9.2 mph - 0.07 in Rain Light Rain
3:53 PM 37.9 °F 30.5 °F 34.0 °F 86% 29.78 in 8.0 mi North 11.5 mph - 0.08 in Rain Light Rain
4:24 PM 37.4 °F 30.3 °F 35.6 °F 93% 29.78 in 10.0 mi North 10.4 mph - 0.00 in Rain Light Rain
4:53 PM 37.0 °F 30.4 °F 35.1 °F 93% 29.80 in 8.0 mi NNW 9.2 mph - 0.01 in Rain Light Rain
5:53 PM 37.9 °F 32.1 °F 35.1 °F 89% 29.82 in 8.0 mi NNW 8.1 mph - 0.06 in Rain Light Rain
6:40 PM 37.4 °F 34.9 °F 35.6 °F 93% 29.84 in 10.0 mi Variable 3.5 mph - 0.02 in Rain Light Rain
6:53 PM 37.9 °F - 35.1 °F 89% 29.84 in 10.0 mi Calm Calm - 0.02 in Rain Light Rain
7:53 PM 39.0 °F 34.8 °F 35.1 °F 86% 29.87 in 10.0 mi NW 5.8 mph - 0.00 in   Overcast
8:53 PM 39.0 °F 34.8 °F 34.0 °F 82% 29.89 in 10.0 mi WNW 5.8 mph - N/A   Overcast
9:53 PM 39.0 °F 35.7 °F 32.0 °F 76% 29.92 in 10.0 mi WNW 4.6 mph - N/A   Overcast
10:53 PM 39.0 °F 34.8 °F 28.0 °F 65% 29.94 in 10.0 mi Variable 5.8 mph - N/A   Mostly Cloudy
11:53 PM 39.0 °F 33.4 °F 24.1 °F 55% 29.96 in 10.0 mi WNW 8.1 mph - N/A   Scattered Clouds